Regional Weather Roundup
Issued by NWS

Home | Current Version | Previous Version | Graphics & Text | Print | Product List | Glossary On
Versions: 1 2 3 4 5 6 7 8 9 10 11 12 13 14 15 16 17 18 19 20 21 22 23 24 25 26 27 28 29 30 31 32 33 34 35 36 37 38 39 40 41 42 43 44 45 46 47 48 49 50
000
ASUS43 KIND 010609
RWRIN

WEATHER ROUNDUP FOR INDIANA
NATIONAL WEATHER SERVICE INDIANAPOLIS IN
200 AM EDT WED JUL 01 2015

NOTE: "FAIR" INDICATES FEW OR NO CLOUDS BELOW 12,000 FEET WITH NO
SIGNIFICANT WEATHER AND/OR OBSTRUCTIONS TO VISIBILITY.

* - STATION DOES NOT REPORT WEATHER SUCH AS PRECIPITATION OR FOG.

+ - STATION NOT QUALITY CONTROLLED BY THE NATIONAL WEATHER SERVICE.
    USE DATA WITH CAUTION...ESPECIALLY DEWPOINT AND RELATIVE
    HUMIDITY OBSERVATIONS.

INZ001>003-010>013-019-020-010700-
NORTHWEST INDIANA

CITY           SKY/WX    TMP DP  RH WIND       PRES   REMARKS
GARY /AIRPORT/ PTCLDY   N/A N/A N/A N3        29.92S
KNOX *+        CLEAR     55  55 100 CALM      29.90S
LA PORTE +     CLEAR     59  59 100 NW5       29.91S
6HR MIN TEMP:  59; 6HR MAX TEMP:  69;

MICHIGAN CITY+ MOCLDY    57  57 100 CALM      29.92R
MONTICELLO +   CLEAR     61  60  97 CALM      29.90S
6HR MIN TEMP:  61; 6HR MAX TEMP:  73;

RENSSELAER +   CLEAR     59  59 100 CALM      29.91S
VALPARAISO     PTCLDY    59  56  89 N5        29.91S
6HR MIN TEMP:  58; 6HR MAX TEMP:  70;


$$

LMZ046-743>745-010700-
SOUTHERN LAKE MICHIGAN

STATION/POSITION TIME  TEMP    WIND        PRES    WAVE
                       AIR SEA DIR/SP/G            HT
                 (UTC) (F)     (DEG/KT/KT) (MB)    (FT)
BURNS HARBOR     0600   60     350/  7/  8 1013.5S
MICHIGAN CITY    0600   59     320/  8/ 10   N/A
5NW MICH CITY    0600   60 65  340/  8/ 10   N/A     3

$$

INZ004-005-014>016-021>024-010700-
NORTH CENTRAL INDIANA

CITY           SKY/WX    TMP DP  RH WIND       PRES   REMARKS
GOSHEN         CLEAR     56  54  93 W7        29.88
6HR MIN TEMP:  56; 6HR MAX TEMP:  69;

LOGANSPORT +   CLEAR     61  55  82 N3        29.91S
PERU/GRISSOM   CLEAR     62  58  86 NW5       29.89F
6HR MIN TEMP:  61; 6HR MAX TEMP:  73;

ROCHESTER +    CLEAR     61  61 100 W5        29.89F
SOUTH BEND     CLEAR     57  55  93 W7        29.89
6HR MIN TEMP:  57; 6HR MAX TEMP:  68;

WARSAW +         N/A     55  55 100 W5        29.88F

$$

INZ006>009-017-018-025>027-010700-
NORTHEAST INDIANA

CITY           SKY/WX    TMP DP  RH WIND       PRES   REMARKS
ANGOLA *+      CLEAR     59  57  94 W5        29.86R
AUBURN +       CLEAR     59  55  88 W7        29.87R
FORT WAYNE     PTCLDY    61  58  90 W8        29.88R
6HR MIN TEMP:  61; 6HR MAX TEMP:  72;

HUNTINGTON +   CLEAR     60  57  91 NW5       29.88S
6HR MIN TEMP:  60; 6HR MAX TEMP:  71;


$$

INZ028-029-035-036-043>045-051>053-010700-
WEST CENTRAL INDIANA

CITY           SKY/WX    TMP DP  RH WIND       PRES   REMARKS
CRAWFORDSVL +  CLEAR     59  58  97 CALM      29.90S FOG
6HR MIN TEMP:  59; 6HR MAX TEMP:  74;

GREENCASTLE +  CLEAR     63  59  88 CALM      29.91R FOG
LAFAYETTE      CLEAR     63  60  90 N3        29.90
6HR MIN TEMP:  63; 6HR MAX TEMP:  75;

TERRE HAUTE    PTCLDY    64  63  96 CALM      29.90  FOG
6HR MIN TEMP:  64; 6HR MAX TEMP:  75;


$$

INZ030>032-037>040-046>048-054>057-064-065-010700-
CENTRAL INDIANA

CITY           SKY/WX    TMP DP  RH WIND       PRES   REMARKS
CP ATTERBURY + CLEAR     61  59  94 CALM      29.90S
FISHERS *+     PTCLDY    61  61 100 CALM      29.90S
FRANKFORT +    CLEAR    N/A N/A N/A N3        29.92S
GREENWOOD *+   CLEAR     64  61  88 CALM      29.90S
INDIANAPOLIS   PTCLDY    67  61  81 CALM      29.88
6HR MIN TEMP:  67; 6HR MAX TEMP:  79;

-EAGLE CREEK   CLEAR     66  63  90 CALM      29.89
6HR MIN TEMP:  66; 6HR MAX TEMP:  78;

KOKOMO *+      CLEAR     63  57  82 NW6       29.89F
6HR MIN TEMP:  63; 6HR MAX TEMP:  75;

MARION +       CLEAR     60  58  94 W3        29.90S
MT COMFORT *+  CLEAR     61 N/A N/A CALM      29.90S
SHELBYVILLE    CLEAR     62  59  90 CALM      29.89
6HR MIN TEMP:  62; 6HR MAX TEMP:  74; 6HR PCP:  0.01;

ZIONSVILLE +   CLEAR     63  59  89 CALM      29.91S FOG
6HR MIN TEMP:  63; 6HR MAX TEMP:  77;


$$

INZ033-034-041-042-049-050-058-059-010700-
EAST CENTRAL INDIANA

CITY           SKY/WX    TMP DP  RH WIND       PRES   REMARKS
MUNCIE         CLEAR     63  59  87 NW5       29.89
6HR MIN TEMP:  63; 6HR MAX TEMP:  76;


$$

INZ060-061-067>069-081>083-085>088-010700-
SOUTHWEST INDIANA

CITY           SKY/WX    TMP DP  RH WIND       PRES   REMARKS
EVANSVILLE     MOCLDY    73  68  84 W5        29.90
6HR MIN TEMP:  72; 6HR MAX TEMP:  80;

HUNTINGBURG *+ PTCLDY    70  66  88 W5        29.90S
6HR MIN TEMP:  70; 6HR MAX TEMP:  79;

WASHINGTON +   PTCLDY    69  65  88 CALM      29.88F
6HR MIN TEMP:  69; 6HR MAX TEMP:  79;


$$

INZ062-063-066-070>080-084-089>092-010700-
SOUTH CENTRAL AND SOUTHEAST INDIANA

CITY           SKY/WX    TMP DP  RH WIND       PRES   REMARKS
BLOOMINGTON    PTCLDY    63  62  97 CALM      29.90S FOG
6HR MIN TEMP:  63; 6HR MAX TEMP:  68; 6HR PCP:  0.01;

MADISON *+     PTCLDY    64  63  94 CALM      29.92S
NORTH VERNON + PTCLDY    64  64 100 SW5       29.90S FOG
SEYMOUR +      PTCLDY    66  64  94 CALM      29.89F FOG

$$




USA.gov is the U.S. government's official web portal to all federal, state and local government web resources and services.